Location: Bukit Lungun
(2.6833°N, 113.9667°E)
Time: 13:46:40
(UTC+00:00)

Cosmos 1980 - Pass Details

Date: 02 March 2021
Orbit: 838 x 848 km, 71.0° (Epoch: 20 April)

Event Time Altitude Azimuth Distance (km) Brightness Sun altitude
Rises 12:38:02 0° 199° (SSW) 3,390 7.2 -30.5°
Reaches altitude 10° 12:40:29 10° 201° (SSW) 2,453 6.4 -31.2°
Enters shadow 12:44:21 45° 213° (SSW) 1,129 4.5 -32.1°
